Location: Espelette
(43.3402°N, 1.4474°W)
Time: 20:45:48
(UTC+00:00)

Cosmos 1933 - Pass Details

Date: 19 May 2025
Orbit: 516 x 523 km, 82.5° (Epoch: 18 June)

Event Time Altitude Azimuth Distance (km) Brightness Sun altitude
Exits shadow 19:56:56 - 156° (SSE) 2,402 6.1 -5.4°
Reaches altitude 10° 19:58:41 10° 146° (SE) 1,756 5.3 -5.6°
Maximum altitude 20:01:53 25° 90° (E) 1,080 4.4 -6.1°
Drops below altitude 10° 20:05:05 10° 34° (NE) 1,765 5.9 -6.6°
Sets 20:07:29 0° 21° (NNE) 2,657 7.0 -6.9°
